Theta_e
298 294 291 290 289 287 287 282 282 281 281 281 282 282 283 283 284 285 285 284 284 283
294 291 289 289 286 284 282 281 280 280 280 280 280 281 282 282 282 284 284 283 282 281
291 289 288 286 283 282 281 280 280 280 279 279 280 280 281 281 282 282 282 281 280 280
289 286 285 284 283 281 280 280 279 279 279 279 279 280 280 281 281 280 280 280 279 278
287 285 285 283 282 281 280 280 279 279 279 279 279 280 280 280 280 280 279 279 277 276
286 285 284 283 281 281 280 279 279 279 278 278 279 280 281 280 280 280 279 278 276 276
285 284 283 282 281 280 280 279 279 279 279 278 279 280 280 280 279 278 277 277 277 276
286 285 283 281 280 280 279 279 279 278 278 278 279 279 279 279 278 276 275 276 276 276
285 284 282 281 280 279 278 278 278 277 277 278 280 280 281 279 277 276 275 275 275 276
284 282 281 280 279 278 278 278 277 277 278 278 279 282 282 280 277 276 276 276 275 275
283 282 281 279 278 278 278 277 277 277 279 279 279 284 283 279 277 277 276 276 276 275
282 281 280 279 278 278 277 277 277 278 279 279 279 285 284 280 277 277 276 276 276 276
282 281 280 279 278 278 278 278 278 278 279 279 280 286 284 280 278 276 275 275 275 276
282 281 281 280 279 278 278 278 278 277 278 279 280 284 285 282 278 277 276 275 274 275
Wind_Speed
11 7 7 8 9 7 8 7 9 8 8 8 8 7 8 7 6 9 9 12 10 9
10 11 10 12 9 9 9 9 10 10 10 8 9 9 9 8 8 10 10 10 10 9
12 11 11 12 12 12 11 12 12 11 10 10 9 9 9 8 9 11 8 8 10 9
12 12 12 11 12 13 13 13 13 13 12 11 10 9 9 9 11 12 11 9 10 11
12 12 14 12 12 13 13 12 12 12 12 10 9 9 10 11 11 12 12 11 10 10
14 13 14 13 13 13 13 12 12 12 12 12 11 11 11 11 11 11 11 10 10 11
14 14 13 13 14 14 13 13 12 11 11 11 10 11 11 11 11 11 9 8 9 9
14 14 13 13 14 13 13 13 13 12 10 11 10 8 13 13 11 10 10 8 8 8
15 15 15 15 14 13 12 12 12 13 13 12 8 16 19 14 11 11 10 10 9 8
15 16 16 15 15 16 15 14 13 11 12 12 11 22 20 18 9 10 11 11 10 9
15 16 16 16 17 16 15 16 15 14 14 12 12 23 22 19 11 10 10 10 10 10
17 17 17 18 18 15 15 14 14 14 15 14 11 24 23 18 10 9 10 10 10 9
17 17 18 17 17 15 14 14 11 12 13 15 14 25 26 18 8 10 9 8 10 13
17 17 17 16 14 15 15 13 13 14 11 13 14 17 27 26 11 9 9 8 8 7
Wind_Direction
179 172 167 166 162 154 155 136 124 112 109 113 118 122 116 108 113 115 112 112 105 102
170 164 160 158 145 145 134 134 133 130 129 130 125 122 120 116 108 113 107 101 101 98
171 162 155 155 147 148 143 141 140 138 139 129 127 122 122 116 123 119 114 116 115 113
166 157 154 153 153 153 148 151 149 150 142 137 135 133 122 131 137 128 127 128 128 124
160 157 162 161 157 154 153 154 150 146 138 136 137 131 142 146 143 140 142 142 137 132
172 168 168 161 158 157 153 153 154 148 150 150 141 152 156 153 147 150 140 144 156 151
176 172 167 162 163 159 161 157 156 158 157 144 153 151 150 149 150 141 140 160 151 141
176 171 164 164 167 164 163 161 157 152 143 147 151 155 157 156 153 144 145 153 146 145
171 168 169 165 165 162 163 161 160 158 156 159 161 169 162 155 159 151 158 161 151 144
171 170 170 167 167 168 171 163 166 158 159 165 167 170 166 171 154 156 177 171 165 157
175 172 171 170 175 171 171 174 169 170 167 166 177 174 174 173 147 179 183 178 171 172
176 175 173 176 177 173 170 174 175 166 170 173 178 180 175 167 163 182 186 176 182 183
176 174 178 177 177 174 175 172 171 166 180 175 178 185 181 166 168 177 179 188 189 195
176 177 175 173 174 169 173 168 172 175 173 183 184 190 186 180 173 180 186 188 187 198